Year,Month,Day,Hour,Minute,Value (Times are PST for temperature in C)
2016,08,17,00,00,17.50
2016,08,17,00,01,17.50
2016,08,17,00,02,17.50
2016,08,17,00,03,17.50
2016,08,17,00,04,17.40
2016,08,17,00,05,17.40
2016,08,17,00,06,17.40
2016,08,17,00,07,17.40
2016,08,17,00,08,17.40
2016,08,17,00,09,17.40
2016,08,17,00,10,17.40
2016,08,17,00,11,17.40
2016,08,17,00,12,17.40
2016,08,17,00,13,17.40
2016,08,17,00,14,17.40
2016,08,17,00,15,17.40
2016,08,17,00,16,17.40
2016,08,17,00,17,17.40
2016,08,17,00,18,17.30
2016,08,17,00,19,17.30
2016,08,17,00,20,17.30
2016,08,17,00,21,17.30
2016,08,17,00,22,17.30
2016,08,17,00,23,17.30
2016,08,17,00,24,17.30
2016,08,17,00,25,17.30
2016,08,17,00,26,17.30
2016,08,17,00,27,17.30
2016,08,17,00,28,17.20
2016,08,17,00,29,17.20
2016,08,17,00,30,17.20
2016,08,17,00,31,17.30
2016,08,17,00,32,17.30
2016,08,17,00,33,17.30
2016,08,17,00,34,17.30
2016,08,17,00,35,17.30
2016,08,17,00,36,17.30
2016,08,17,00,37,17.30
2016,08,17,00,38,17.30
2016,08,17,00,39,17.30
2016,08,17,00,40,17.30
2016,08,17,00,41,17.30
2016,08,17,00,42,17.30
2016,08,17,00,43,17.30
2016,08,17,00,44,17.30
2016,08,17,00,45,17.30
2016,08,17,00,46,17.30
2016,08,17,00,47,17.30
2016,08,17,00,48,17.30
2016,08,17,00,49,17.30
2016,08,17,00,50,17.30
2016,08,17,00,51,17.30
2016,08,17,00,52,17.30
2016,08,17,00,53,17.30
2016,08,17,00,54,17.30
2016,08,17,00,55,17.30
2016,08,17,00,56,17.30
2016,08,17,00,57,17.30
2016,08,17,00,58,17.30
2016,08,17,00,59,17.30
2016,08,17,01,00,17.30
2016,08,17,01,01,17.30
2016,08,17,01,02,17.20
2016,08,17,01,03,17.20
2016,08,17,01,04,17.20
2016,08,17,01,05,17.20
2016,08,17,01,06,17.20
2016,08,17,01,07,17.20
2016,08,17,01,08,17.20
2016,08,17,01,09,17.20
2016,08,17,01,10,17.20
2016,08,17,01,11,17.20
2016,08,17,01,12,17.20
2016,08,17,01,13,17.10
2016,08,17,01,14,17.10
2016,08,17,01,15,17.10
2016,08,17,01,16,17.10
2016,08,17,01,17,17.10
2016,08,17,01,18,17.10
2016,08,17,01,19,17.00
2016,08,17,01,20,17.00
2016,08,17,01,21,17.00
2016,08,17,01,22,16.90
2016,08,17,01,23,16.90
2016,08,17,01,24,16.90
2016,08,17,01,25,16.80
2016,08,17,01,26,16.80
2016,08,17,01,27,16.80
2016,08,17,01,28,16.70
2016,08,17,01,29,16.70
2016,08,17,01,30,16.70
2016,08,17,01,31,16.60
2016,08,17,01,32,16.60
2016,08,17,01,33,16.50
2016,08,17,01,34,16.50
2016,08,17,01,35,16.50
2016,08,17,01,36,16.40
2016,08,17,01,37,16.40
2016,08,17,01,38,16.30
2016,08,17,01,39,16.30
2016,08,17,01,40,16.30
2016,08,17,01,41,16.20
2016,08,17,01,42,16.20
2016,08,17,01,43,16.20
2016,08,17,01,44,16.20
2016,08,17,01,45,16.10
2016,08,17,01,46,16.10
2016,08,17,01,47,16.10
2016,08,17,01,48,16.10
2016,08,17,01,49,16.10
2016,08,17,01,50,16.10
2016,08,17,01,51,16.10
2016,08,17,01,52,16.10
2016,08,17,01,53,16.10
2016,08,17,01,54,16.10
2016,08,17,01,55,16.20
2016,08,17,01,56,16.20
2016,08,17,01,57,16.20
2016,08,17,01,58,16.20
2016,08,17,01,59,16.20
2016,08,17,02,00,16.20
2016,08,17,02,01,16.30
2016,08,17,02,02,16.30
2016,08,17,02,03,16.30
2016,08,17,02,04,16.30
2016,08,17,02,05,16.30
2016,08,17,02,06,16.30
2016,08,17,02,07,16.30
2016,08,17,02,08,16.30
2016,08,17,02,09,16.30
2016,08,17,02,10,16.30
2016,08,17,02,11,16.20
2016,08,17,02,12,16.20
2016,08,17,02,13,16.20
2016,08,17,02,14,16.10
2016,08,17,02,15,16.10
2016,08,17,02,16,16.00
2016,08,17,02,17,16.00
2016,08,17,02,18,15.90
2016,08,17,02,19,15.90
2016,08,17,02,20,15.80
2016,08,17,02,21,15.70
2016,08,17,02,22,15.70
2016,08,17,02,23,15.60
2016,08,17,02,24,15.60
2016,08,17,02,25,15.50
2016,08,17,02,26,15.50
2016,08,17,02,27,15.40
2016,08,17,02,28,15.30
2016,08,17,02,29,15.30
2016,08,17,02,30,15.20
2016,08,17,02,31,15.20
2016,08,17,02,32,15.10
2016,08,17,02,33,15.10
2016,08,17,02,34,15.00
2016,08,17,02,35,15.00
2016,08,17,02,36,14.90
2016,08,17,02,37,14.90
2016,08,17,02,38,14.90
2016,08,17,02,39,14.90
2016,08,17,02,40,14.90
2016,08,17,02,41,14.80
2016,08,17,02,42,14.80
2016,08,17,02,43,14.70
2016,08,17,02,44,14.70
2016,08,17,02,45,14.70
2016,08,17,02,46,14.60
2016,08,17,02,47,14.60
2016,08,17,02,48,14.50
2016,08,17,02,49,14.40
2016,08,17,02,50,14.40
2016,08,17,02,51,14.40
2016,08,17,02,52,14.40
2016,08,17,02,53,14.30
2016,08,17,02,54,14.30
2016,08,17,02,55,14.30
2016,08,17,02,56,14.30
2016,08,17,02,57,14.30
2016,08,17,02,58,14.20
2016,08,17,02,59,14.20
2016,08,17,03,00,14.10
2016,08,17,03,01,14.10
2016,08,17,03,02,14.10
2016,08,17,03,03,14.00
2016,08,17,03,04,14.00
2016,08,17,03,05,14.00
2016,08,17,03,06,13.90
2016,08,17,03,07,13.90
2016,08,17,03,08,13.90
2016,08,17,03,09,13.90
2016,08,17,03,10,13.90
2016,08,17,03,11,13.80
2016,08,17,03,12,13.80
2016,08,17,03,13,13.80
2016,08,17,03,14,13.80
2016,08,17,03,15,13.80
2016,08,17,03,16,13.80
2016,08,17,03,17,13.80
2016,08,17,03,18,13.70
2016,08,17,03,19,13.70
2016,08,17,03,20,13.70
2016,08,17,03,21,13.70
2016,08,17,03,22,13.70
2016,08,17,03,23,13.70
2016,08,17,03,24,13.70
2016,08,17,03,25,13.70
2016,08,17,03,26,13.70
2016,08,17,03,27,13.70
2016,08,17,03,28,13.80
2016,08,17,03,29,13.80
2016,08,17,03,30,13.80
2016,08,17,03,31,13.80
2016,08,17,03,32,13.80
2016,08,17,03,33,13.70
2016,08,17,03,34,13.70
2016,08,17,03,35,13.70
2016,08,17,03,36,13.70
2016,08,17,03,37,13.70
2016,08,17,03,38,13.60
2016,08,17,03,39,13.60
2016,08,17,03,40,13.60
2016,08,17,03,41,13.60
2016,08,17,03,42,13.50
2016,08,17,03,43,13.50
2016,08,17,03,44,13.50
2016,08,17,03,45,13.50
2016,08,17,03,46,13.50
2016,08,17,03,47,13.50
2016,08,17,03,48,13.60
2016,08,17,03,49,13.60
2016,08,17,03,50,13.60
2016,08,17,03,51,13.50
2016,08,17,03,52,13.50
2016,08,17,03,53,13.50
2016,08,17,03,54,13.50
2016,08,17,03,55,13.50
2016,08,17,03,56,13.50
2016,08,17,03,57,13.50
2016,08,17,03,58,13.40
2016,08,17,03,59,13.40
2016,08,17,04,00,13.40
2016,08,17,04,01,13.40
2016,08,17,04,02,13.30
2016,08,17,04,03,13.30
2016,08,17,04,04,13.30
2016,08,17,04,05,13.30
2016,08,17,04,06,13.30
2016,08,17,04,07,13.30
2016,08,17,04,08,13.30
2016,08,17,04,09,13.30
2016,08,17,04,10,13.20
2016,08,17,04,11,13.20
2016,08,17,04,12,13.20
2016,08,17,04,13,13.20
2016,08,17,04,14,13.20
2016,08,17,04,15,13.10
2016,08,17,04,16,13.10
2016,08,17,04,17,13.10
2016,08,17,04,18,13.10
2016,08,17,04,19,13.00
2016,08,17,04,20,13.00
2016,08,17,04,21,13.00
2016,08,17,04,22,13.00
2016,08,17,04,23,12.90
2016,08,17,04,24,12.90
2016,08,17,04,25,13.00
2016,08,17,04,26,13.00
2016,08,17,04,27,13.00
2016,08,17,04,28,12.90
2016,08,17,04,29,12.90
2016,08,17,04,30,12.90
2016,08,17,04,31,12.90
2016,08,17,04,32,12.90
2016,08,17,04,33,12.90
2016,08,17,04,34,12.90
2016,08,17,04,35,12.80
2016,08,17,04,36,12.80
2016,08,17,04,37,12.80
2016,08,17,04,38,12.80
2016,08,17,04,39,12.80
2016,08,17,04,40,12.80
2016,08,17,04,41,12.80
2016,08,17,04,42,12.70
2016,08,17,04,43,12.70
2016,08,17,04,44,12.70
2016,08,17,04,45,12.70
2016,08,17,04,46,12.70
2016,08,17,04,47,12.70
2016,08,17,04,48,12.70
2016,08,17,04,49,12.70
2016,08,17,04,50,12.70
2016,08,17,04,51,12.70
2016,08,17,04,52,12.70
2016,08,17,04,53,12.70
2016,08,17,04,54,12.70
2016,08,17,04,55,12.70
2016,08,17,04,56,12.70
2016,08,17,04,57,12.70
2016,08,17,04,58,12.70
2016,08,17,04,59,12.70
2016,08,17,05,00,12.60
2016,08,17,05,01,12.60
2016,08,17,05,02,12.70
2016,08,17,05,03,12.70
2016,08,17,05,04,12.70
2016,08,17,05,05,12.60
2016,08,17,05,06,12.60
2016,08,17,05,07,12.60
2016,08,17,05,08,12.60
2016,08,17,05,09,12.60
2016,08,17,05,10,12.60
2016,08,17,05,11,12.60
2016,08,17,05,12,12.60
2016,08,17,05,13,12.60
2016,08,17,05,14,12.60
2016,08,17,05,15,12.60
2016,08,17,05,16,12.60
2016,08,17,05,17,12.60
2016,08,17,05,18,12.60
2016,08,17,05,19,12.60
2016,08,17,05,20,12.60
2016,08,17,05,21,12.60
2016,08,17,05,22,12.60
2016,08,17,05,23,12.60
2016,08,17,05,24,12.60
2016,08,17,05,25,12.60
2016,08,17,05,26,12.60
2016,08,17,05,27,12.60
2016,08,17,05,28,12.60
2016,08,17,05,29,12.60
2016,08,17,05,30,12.60
2016,08,17,05,31,12.50
2016,08,17,05,32,12.50
2016,08,17,05,33,12.50
2016,08,17,05,34,12.50
2016,08,17,05,35,12.50
2016,08,17,05,36,12.50
2016,08,17,05,37,12.50
2016,08,17,05,38,12.50
2016,08,17,05,39,12.50
2016,08,17,05,40,12.50
2016,08,17,05,41,12.50
2016,08,17,05,42,12.50
2016,08,17,05,43,12.50
2016,08,17,05,44,12.50
2016,08,17,05,45,12.40
2016,08,17,05,46,12.40
2016,08,17,05,47,12.40
2016,08,17,05,48,12.40
2016,08,17,05,49,12.40
2016,08,17,05,50,12.40
2016,08,17,05,51,12.40
2016,08,17,05,52,12.40
2016,08,17,05,53,12.40
2016,08,17,05,54,12.40
2016,08,17,05,55,12.40
2016,08,17,05,56,12.40
2016,08,17,05,57,12.40
2016,08,17,05,58,12.40
2016,08,17,05,59,12.40
2016,08,17,06,00,12.30
2016,08,17,06,01,12.30
2016,08,17,06,02,12.30
2016,08,17,06,03,12.30
2016,08,17,06,04,12.30
2016,08,17,06,05,12.30
2016,08,17,06,06,12.30
2016,08,17,06,07,12.30
2016,08,17,06,08,12.30
2016,08,17,06,09,12.30
2016,08,17,06,10,12.30
2016,08,17,06,11,12.30
2016,08,17,06,12,12.30
2016,08,17,06,13,12.30
2016,08,17,06,14,12.30
2016,08,17,06,15,12.30
2016,08,17,06,16,12.30
2016,08,17,06,17,12.30
2016,08,17,06,18,12.30
2016,08,17,06,19,12.30
2016,08,17,06,20,12.30
2016,08,17,06,21,12.30
2016,08,17,06,22,12.30
2016,08,17,06,23,12.30
2016,08,17,06,24,12.30
2016,08,17,06,25,12.30
2016,08,17,06,26,12.30
2016,08,17,06,27,12.30
2016,08,17,06,28,12.30
2016,08,17,06,29,12.30
2016,08,17,06,30,12.30
2016,08,17,06,31,12.30
2016,08,17,06,32,12.30
2016,08,17,06,33,12.20
2016,08,17,06,34,12.20
2016,08,17,06,35,12.20
2016,08,17,06,36,12.20
2016,08,17,06,37,12.20
2016,08,17,06,38,12.20
2016,08,17,06,39,12.20
2016,08,17,06,40,12.20
2016,08,17,06,41,12.20
2016,08,17,06,42,12.20
2016,08,17,06,43,12.20
2016,08,17,06,44,12.20
2016,08,17,06,45,12.20
2016,08,17,06,46,12.20
2016,08,17,06,47,12.10
2016,08,17,06,48,12.10
2016,08,17,06,49,12.10
2016,08,17,06,50,12.10
2016,08,17,06,51,12.10
2016,08,17,06,52,12.20
2016,08,17,06,53,12.20
2016,08,17,06,54,12.30
2016,08,17,06,55,12.30
2016,08,17,06,56,12.30
2016,08,17,06,57,12.40
2016,08,17,06,58,12.40
2016,08,17,06,59,12.40
2016,08,17,07,00,12.40
2016,08,17,07,01,12.40
2016,08,17,07,02,12.40
2016,08,17,07,03,12.40
2016,08,17,07,04,12.40
2016,08,17,07,05,12.40
2016,08,17,07,06,12.40
2016,08,17,07,07,12.50
2016,08,17,07,08,12.50
2016,08,17,07,09,12.50
2016,08,17,07,10,12.60
2016,08,17,07,11,12.60
2016,08,17,07,12,12.60
2016,08,17,07,13,12.60
2016,08,17,07,14,12.60
2016,08,17,07,15,12.60
2016,08,17,07,16,12.70
2016,08,17,07,17,12.70
2016,08,17,07,18,12.70
2016,08,17,07,19,12.70
2016,08,17,07,20,12.80
2016,08,17,07,21,12.80
2016,08,17,07,22,12.90
2016,08,17,07,23,12.90
2016,08,17,07,24,13.00
2016,08,17,07,25,13.10
2016,08,17,07,26,13.20
2016,08,17,07,27,13.30
2016,08,17,07,28,13.40
2016,08,17,07,29,13.50
2016,08,17,07,30,13.60
2016,08,17,07,31,13.60
2016,08,17,07,32,13.80
2016,08,17,07,33,13.80
2016,08,17,07,34,13.90
2016,08,17,07,35,14.00
2016,08,17,07,36,14.10
2016,08,17,07,37,14.20
2016,08,17,07,38,14.30
2016,08,17,07,39,14.40
2016,08,17,07,40,14.40
2016,08,17,07,41,14.50
2016,08,17,07,42,14.60
2016,08,17,07,43,14.70
2016,08,17,07,44,14.70
2016,08,17,07,45,14.80
2016,08,17,07,46,14.90
2016,08,17,07,47,15.00
2016,08,17,07,48,15.20
2016,08,17,07,49,15.30
2016,08,17,07,50,15.30
2016,08,17,07,51,15.40
2016,08,17,07,52,15.50
2016,08,17,07,53,15.60
2016,08,17,07,54,15.70
2016,08,17,07,55,15.80
2016,08,17,07,56,15.80
2016,08,17,07,57,15.90
2016,08,17,07,58,15.90
2016,08,17,07,59,15.90
2016,08,17,08,00,16.00
2016,08,17,08,01,16.10
2016,08,17,08,02,16.10
2016,08,17,08,03,16.10
2016,08,17,08,04,16.20
2016,08,17,08,05,16.20
2016,08,17,08,06,16.20
2016,08,17,08,07,16.10
2016,08,17,08,08,16.10
2016,08,17,08,09,16.10
2016,08,17,08,10,16.10
2016,08,17,08,11,16.20
2016,08,17,08,12,16.20
2016,08,17,08,13,16.30
2016,08,17,08,14,16.30
2016,08,17,08,15,16.40
2016,08,17,08,16,16.50
2016,08,17,08,17,16.50
2016,08,17,08,18,16.60
2016,08,17,08,19,16.70
2016,08,17,08,20,16.80
2016,08,17,08,21,16.90
2016,08,17,08,22,17.00
2016,08,17,08,23,17.00
2016,08,17,08,24,17.10
2016,08,17,08,25,17.20
2016,08,17,08,26,17.30
2016,08,17,08,27,17.30
2016,08,17,08,28,17.40
2016,08,17,08,29,17.50
2016,08,17,08,30,17.50
2016,08,17,08,31,17.60
2016,08,17,08,32,17.60
2016,08,17,08,33,17.70
2016,08,17,08,34,17.70
2016,08,17,08,35,17.70
2016,08,17,08,36,17.70
2016,08,17,08,37,17.70
2016,08,17,08,38,17.60
2016,08,17,08,39,17.60
2016,08,17,08,40,17.60
2016,08,17,08,41,17.60
2016,08,17,08,42,17.60
2016,08,17,08,43,17.60
2016,08,17,08,44,17.60
2016,08,17,08,45,17.70
2016,08,17,08,46,17.70
2016,08,17,08,47,17.70
2016,08,17,08,48,17.70
2016,08,17,08,49,17.70
2016,08,17,08,50,17.60
2016,08,17,08,51,17.70
2016,08,17,08,52,17.70
2016,08,17,08,53,17.70
2016,08,17,08,54,17.70
2016,08,17,08,55,17.70
2016,08,17,08,56,17.80
2016,08,17,08,57,17.80
2016,08,17,08,58,17.80
2016,08,17,08,59,17.80
2016,08,17,09,00,17.80
2016,08,17,09,01,17.80
2016,08,17,09,02,17.80
2016,08,17,09,03,17.80
2016,08,17,09,04,17.80
2016,08,17,09,05,17.80
2016,08,17,09,06,17.80
2016,08,17,09,07,17.80
2016,08,17,09,08,17.80
2016,08,17,09,09,17.90
2016,08,17,09,10,17.90
2016,08,17,09,11,17.90
2016,08,17,09,12,17.90
2016,08,17,09,13,17.90
2016,08,17,09,14,17.90
2016,08,17,09,15,17.90
2016,08,17,09,16,18.00
2016,08,17,09,17,18.00
2016,08,17,09,18,18.10
2016,08,17,09,19,18.10
2016,08,17,09,20,18.20
2016,08,17,09,21,18.30
2016,08,17,09,22,18.30
2016,08,17,09,23,18.40
2016,08,17,09,24,18.50
2016,08,17,09,25,18.60
2016,08,17,09,26,18.60
2016,08,17,09,27,18.60
2016,08,17,09,28,18.60
2016,08,17,09,29,18.60
2016,08,17,09,30,18.70
2016,08,17,09,31,18.80
2016,08,17,09,32,18.80
2016,08,17,09,33,18.90
2016,08,17,09,34,19.00
2016,08,17,09,35,19.10
2016,08,17,09,36,19.00
2016,08,17,09,37,19.00
2016,08,17,09,38,18.90
2016,08,17,09,39,18.80
2016,08,17,09,40,18.80
2016,08,17,09,41,18.70
2016,08,17,09,42,18.70
2016,08,17,09,43,18.70
2016,08,17,09,44,18.70
2016,08,17,09,45,18.80
2016,08,17,09,46,18.70
2016,08,17,09,47,18.80
2016,08,17,09,48,18.80
2016,08,17,09,49,18.90
2016,08,17,09,50,18.90
2016,08,17,09,51,18.90
2016,08,17,09,52,19.00
2016,08,17,09,53,19.00
2016,08,17,09,54,19.00
2016,08,17,09,55,19.10
2016,08,17,09,56,19.10
2016,08,17,09,57,19.20
2016,08,17,09,58,19.30
2016,08,17,09,59,19.30
2016,08,17,10,00,19.40
2016,08,17,10,01,19.40
2016,08,17,10,02,19.50
2016,08,17,10,03,19.60
2016,08,17,10,04,19.70
2016,08,17,10,05,19.80
2016,08,17,10,06,19.80
2016,08,17,10,07,19.90
2016,08,17,10,08,19.90
2016,08,17,10,09,19.90
2016,08,17,10,10,20.00
2016,08,17,10,11,20.00
2016,08,17,10,12,20.10
2016,08,17,10,13,20.10
2016,08,17,10,14,20.10
2016,08,17,10,15,20.00
2016,08,17,10,16,20.00
2016,08,17,10,17,20.00
2016,08,17,10,18,20.00
2016,08,17,10,19,20.10
2016,08,17,10,20,20.10
2016,08,17,10,21,20.10
2016,08,17,10,22,20.10
2016,08,17,10,23,20.20
2016,08,17,10,24,20.30
2016,08,17,10,25,20.30
2016,08,17,10,26,20.30
2016,08,17,10,27,20.30
2016,08,17,10,28,20.30
2016,08,17,10,29,20.40
2016,08,17,10,30,20.40
2016,08,17,10,31,20.40
2016,08,17,10,32,20.30
2016,08,17,10,33,20.30
2016,08,17,10,34,20.30
2016,08,17,10,35,20.30
2016,08,17,10,36,20.30
2016,08,17,10,37,20.30
2016,08,17,10,38,20.30
2016,08,17,10,39,20.30
2016,08,17,10,40,20.30
2016,08,17,10,41,20.30
2016,08,17,10,42,20.30
2016,08,17,10,43,20.30
2016,08,17,10,44,20.30
2016,08,17,10,45,20.30
2016,08,17,10,46,20.30
2016,08,17,10,47,20.30
2016,08,17,10,48,20.40
2016,08,17,10,49,20.40
2016,08,17,10,50,20.40
2016,08,17,10,51,20.40
2016,08,17,10,52,20.50
2016,08,17,10,53,20.50
2016,08,17,10,54,20.60
2016,08,17,10,55,20.60
2016,08,17,10,56,20.50
2016,08,17,10,57,20.40
2016,08,17,10,58,20.40
2016,08,17,10,59,20.40
2016,08,17,11,00,20.40
2016,08,17,11,01,20.40
2016,08,17,11,02,20.40
2016,08,17,11,03,20.30
2016,08,17,11,04,20.30
2016,08,17,11,05,20.30
2016,08,17,11,06,20.40
2016,08,17,11,07,20.50
2016,08,17,11,08,20.50
2016,08,17,11,09,20.60
2016,08,17,11,10,20.60
2016,08,17,11,11,20.50
2016,08,17,11,12,20.40
2016,08,17,11,13,20.40
2016,08,17,11,14,20.30
2016,08,17,11,15,20.30
2016,08,17,11,16,20.30
2016,08,17,11,17,20.40
2016,08,17,11,18,20.50
2016,08,17,11,19,20.50
2016,08,17,11,20,20.60
2016,08,17,11,21,20.70
2016,08,17,11,22,20.80
2016,08,17,11,23,20.90
2016,08,17,11,24,21.00
2016,08,17,11,25,21.00
2016,08,17,11,26,21.00
2016,08,17,11,27,20.90
2016,08,17,11,28,20.90
2016,08,17,11,29,20.80
2016,08,17,11,30,20.90
2016,08,17,11,31,20.90
2016,08,17,11,32,20.90
2016,08,17,11,33,21.00
2016,08,17,11,34,21.00
2016,08,17,11,35,21.00
2016,08,17,11,36,21.00
2016,08,17,11,37,21.00
2016,08,17,11,38,21.10
2016,08,17,11,39,21.00
2016,08,17,11,40,21.00
2016,08,17,11,41,21.00
2016,08,17,11,42,21.00
2016,08,17,11,43,21.10
2016,08,17,11,44,21.10
2016,08,17,11,45,21.20
2016,08,17,11,46,21.20
2016,08,17,11,47,21.10
2016,08,17,11,48,21.10
2016,08,17,11,49,21.00
2016,08,17,11,50,21.00
2016,08,17,11,51,20.90
2016,08,17,11,52,20.90
2016,08,17,11,53,20.90
2016,08,17,11,54,20.90
2016,08,17,11,55,21.00
2016,08,17,11,56,21.00
2016,08,17,11,57,21.10
2016,08,17,11,58,21.10
2016,08,17,11,59,21.20
2016,08,17,12,00,21.20
2016,08,17,12,01,21.30
2016,08,17,12,02,21.30
2016,08,17,12,03,21.30
2016,08,17,12,04,21.30
2016,08,17,12,05,21.30
2016,08,17,12,06,21.30
2016,08,17,12,07,21.30
2016,08,17,12,08,21.30
2016,08,17,12,09,21.50
2016,08,17,12,10,21.60
2016,08,17,12,11,21.70
2016,08,17,12,12,21.80
2016,08,17,12,13,21.90
2016,08,17,12,14,21.90
2016,08,17,12,15,22.00
2016,08,17,12,16,22.10
2016,08,17,12,17,22.10
2016,08,17,12,18,22.20
2016,08,17,12,19,22.20
2016,08,17,12,20,22.20
2016,08,17,12,21,22.20
2016,08,17,12,22,22.20
2016,08,17,12,23,22.30
2016,08,17,12,24,22.30
2016,08,17,12,25,22.40
2016,08,17,12,26,22.40
2016,08,17,12,27,22.40
2016,08,17,12,28,22.50
2016,08,17,12,29,22.50
2016,08,17,12,30,22.60
2016,08,17,12,31,22.60
2016,08,17,12,32,22.60
2016,08,17,12,33,22.60
2016,08,17,12,34,22.60
2016,08,17,12,35,22.60
2016,08,17,12,36,22.70
2016,08,17,12,37,22.70
2016,08,17,12,38,22.80
2016,08,17,12,39,22.80
2016,08,17,12,40,22.80
2016,08,17,12,41,22.80
2016,08,17,12,42,22.80
2016,08,17,12,43,22.80
2016,08,17,12,44,22.80
2016,08,17,12,45,22.70
2016,08,17,12,46,22.60
2016,08,17,12,47,22.60
2016,08,17,12,48,22.50
2016,08,17,12,49,22.40
2016,08,17,12,50,22.30
2016,08,17,12,51,22.30
2016,08,17,12,52,22.30
2016,08,17,12,53,22.20
2016,08,17,12,54,22.20
2016,08,17,12,55,22.20
2016,08,17,12,56,22.30
2016,08,17,12,57,22.30
2016,08,17,12,58,22.30
2016,08,17,12,59,22.30
2016,08,17,13,00,22.40
2016,08,17,13,01,22.40
2016,08,17,13,02,22.40
2016,08,17,13,03,22.30
2016,08,17,13,04,22.30
2016,08,17,13,05,22.30
2016,08,17,13,06,22.20
2016,08,17,13,07,22.20
2016,08,17,13,08,22.20
2016,08,17,13,09,22.20
2016,08,17,13,10,22.20
2016,08,17,13,11,22.30
2016,08,17,13,12,22.30
2016,08,17,13,13,22.30
2016,08,17,13,14,22.30
2016,08,17,13,15,22.30
2016,08,17,13,16,22.30
2016,08,17,13,17,22.40
2016,08,17,13,18,22.50
2016,08,17,13,19,22.60
2016,08,17,13,20,22.70
2016,08,17,13,21,22.80
2016,08,17,13,22,22.90
2016,08,17,13,23,23.10
2016,08,17,13,24,23.20
2016,08,17,13,25,23.20
2016,08,17,13,26,23.20
2016,08,17,13,27,23.20
2016,08,17,13,28,23.30
2016,08,17,13,29,23.30
2016,08,17,13,30,23.30
2016,08,17,13,31,23.40
2016,08,17,13,32,23.50
2016,08,17,13,33,23.50
2016,08,17,13,34,23.60
2016,08,17,13,35,23.70
2016,08,17,13,36,23.70
2016,08,17,13,37,23.70
2016,08,17,13,38,23.70
2016,08,17,13,39,23.60
2016,08,17,13,40,23.50
2016,08,17,13,41,23.40
2016,08,17,13,42,23.30
2016,08,17,13,43,23.20
2016,08,17,13,44,23.20
2016,08,17,13,45,23.20
2016,08,17,13,46,23.10
2016,08,17,13,47,23.20
2016,08,17,13,48,23.10
2016,08,17,13,49,23.10
2016,08,17,13,50,23.10
2016,08,17,13,51,23.10
2016,08,17,13,52,23.20
2016,08,17,13,53,23.30
2016,08,17,13,54,23.50
2016,08,17,13,55,23.70
2016,08,17,13,56,23.80
2016,08,17,13,57,23.90
2016,08,17,13,58,23.90
2016,08,17,13,59,23.90
2016,08,17,14,00,24.00
2016,08,17,14,01,24.10
2016,08,17,14,02,24.10
2016,08,17,14,03,24.10
2016,08,17,14,04,24.20
2016,08,17,14,05,24.30
2016,08,17,14,06,24.40
2016,08,17,14,07,24.40
2016,08,17,14,08,24.50
2016,08,17,14,09,24.60
2016,08,17,14,10,24.60
2016,08,17,14,11,24.70
2016,08,17,14,12,24.80
2016,08,17,14,13,24.80
2016,08,17,14,14,24.80
2016,08,17,14,15,24.80
2016,08,17,14,16,24.60
2016,08,17,14,17,24.60
2016,08,17,14,18,24.50
2016,08,17,14,19,24.50
2016,08,17,14,20,24.60
2016,08,17,14,21,24.50
2016,08,17,14,22,24.50
2016,08,17,14,23,24.50
2016,08,17,14,24,24.50
2016,08,17,14,25,24.40
2016,08,17,14,26,24.40
2016,08,17,14,27,24.30
2016,08,17,14,28,24.30
2016,08,17,14,29,24.20
2016,08,17,14,30,24.20
2016,08,17,14,31,24.30
2016,08,17,14,32,24.30
2016,08,17,14,33,24.40
2016,08,17,14,34,24.40
2016,08,17,14,35,24.40
2016,08,17,14,36,24.40
2016,08,17,14,37,24.40
2016,08,17,14,38,24.50
2016,08,17,14,39,24.50
2016,08,17,14,40,24.60
2016,08,17,14,41,24.60
2016,08,17,14,42,24.60
2016,08,17,14,43,24.70
2016,08,17,14,44,24.80
2016,08,17,14,45,24.80
2016,08,17,14,46,24.80
2016,08,17,14,47,24.80
2016,08,17,14,48,24.90
2016,08,17,14,49,25.00
2016,08,17,14,50,25.10
2016,08,17,14,51,25.20
2016,08,17,14,52,25.30
2016,08,17,14,53,25.30
2016,08,17,14,54,25.20
2016,08,17,14,55,25.20
2016,08,17,14,56,25.30
2016,08,17,14,57,25.30
2016,08,17,14,58,25.30
2016,08,17,14,59,25.40
2016,08,17,15,00,25.50
2016,08,17,15,01,25.50
2016,08,17,15,02,25.40
2016,08,17,15,03,25.40
2016,08,17,15,04,25.40
2016,08,17,15,05,25.40
2016,08,17,15,06,25.40
2016,08,17,15,07,25.40
2016,08,17,15,08,25.50
2016,08,17,15,09,25.50
2016,08,17,15,10,25.50
2016,08,17,15,11,25.60
2016,08,17,15,12,25.60
2016,08,17,15,13,25.70
2016,08,17,15,14,25.80
2016,08,17,15,15,25.80
2016,08,17,15,16,25.90
2016,08,17,15,17,26.00
2016,08,17,15,18,26.00
2016,08,17,15,19,25.90
2016,08,17,15,20,25.90
2016,08,17,15,21,25.90
2016,08,17,15,22,25.90
2016,08,17,15,23,25.90
2016,08,17,15,24,26.00
2016,08,17,15,25,26.00
2016,08,17,15,26,26.10
2016,08,17,15,27,26.10
2016,08,17,15,28,26.10
2016,08,17,15,29,26.10
2016,08,17,15,30,26.00
2016,08,17,15,31,25.90
2016,08,17,15,32,25.80
2016,08,17,15,33,25.90
2016,08,17,15,34,25.90
2016,08,17,15,35,25.90
2016,08,17,15,36,25.80
2016,08,17,15,37,25.80
2016,08,17,15,38,25.80
2016,08,17,15,39,25.80
2016,08,17,15,40,25.90
2016,08,17,15,41,25.90
2016,08,17,15,42,25.90
2016,08,17,15,43,25.90
2016,08,17,15,44,25.90
2016,08,17,15,45,25.90
2016,08,17,15,46,25.90
2016,08,17,15,47,25.90
2016,08,17,15,48,25.90
2016,08,17,15,49,25.90
2016,08,17,15,50,25.90
2016,08,17,15,51,25.90
2016,08,17,15,52,26.00
2016,08,17,15,53,26.10
2016,08,17,15,54,26.20
2016,08,17,15,55,26.40
2016,08,17,15,56,26.60
2016,08,17,15,57,26.60
2016,08,17,15,58,26.60
2016,08,17,15,59,26.70
2016,08,17,16,00,26.90
2016,08,17,16,01,27.00
2016,08,17,16,02,27.10
2016,08,17,16,03,27.00
2016,08,17,16,04,27.00
2016,08,17,16,05,27.00
2016,08,17,16,06,27.00
2016,08,17,16,07,27.10
2016,08,17,16,08,27.20
2016,08,17,16,09,27.30
2016,08,17,16,10,27.40
2016,08,17,16,11,27.50
2016,08,17,16,12,27.60
2016,08,17,16,13,27.50
2016,08,17,16,14,27.40
2016,08,17,16,15,27.30
2016,08,17,16,16,27.30
2016,08,17,16,17,27.30
2016,08,17,16,18,27.30
2016,08,17,16,19,27.40
2016,08,17,16,20,27.50
2016,08,17,16,21,27.50
2016,08,17,16,22,27.60
2016,08,17,16,23,27.50
2016,08,17,16,24,27.40
2016,08,17,16,25,27.50
2016,08,17,16,26,27.40
2016,08,17,16,27,27.40
2016,08,17,16,28,27.50
2016,08,17,16,29,27.40
2016,08,17,16,30,27.40
2016,08,17,16,31,27.30
2016,08,17,16,32,27.20
2016,08,17,16,33,27.10
2016,08,17,16,34,27.00
2016,08,17,16,35,27.00
2016,08,17,16,36,26.90
2016,08,17,16,37,26.90
2016,08,17,16,38,26.80
2016,08,17,16,39,26.80
2016,08,17,16,40,26.80
2016,08,17,16,41,26.90
2016,08,17,16,42,26.90
2016,08,17,16,43,26.90
2016,08,17,16,44,26.90
2016,08,17,16,45,26.90
2016,08,17,16,46,27.00
2016,08,17,16,47,27.00
2016,08,17,16,48,27.00
2016,08,17,16,49,27.00
2016,08,17,16,50,27.10
2016,08,17,16,51,27.10
2016,08,17,16,52,27.10
2016,08,17,16,53,27.10
2016,08,17,16,54,27.00
2016,08,17,16,55,26.90
2016,08,17,16,56,26.80
2016,08,17,16,57,26.70
2016,08,17,16,58,26.70
2016,08,17,16,59,26.80
2016,08,17,17,00,26.90
2016,08,17,17,01,27.10
2016,08,17,17,02,27.30
2016,08,17,17,03,27.40
2016,08,17,17,04,27.40
2016,08,17,17,05,27.40
2016,08,17,17,06,27.30
2016,08,17,17,07,27.30
2016,08,17,17,08,27.20
2016,08,17,17,09,27.20
2016,08,17,17,10,27.20
2016,08,17,17,11,27.20
2016,08,17,17,12,27.20
2016,08,17,17,13,27.20
2016,08,17,17,14,27.30
2016,08,17,17,15,27.30
2016,08,17,17,16,27.40
2016,08,17,17,17,27.30
2016,08,17,17,18,27.30
2016,08,17,17,19,27.20